Ball Ground, GA

8:29 AM EST on February 08, 2016 (GMT -0500)
Canton

Weather History for KCNI - March, 2013

Change the Weather History Date:

Thursday, March 21, 2013

  Actual Average (KGVL) Record (KGVL)
Temperature  
Mean Temperature 37 °F 54 °F  
Max Temperature 46 °F 64 °F 84 °F (1948)
Min Temperature 28 °F 44 °F 17 °F (1965)
Degree Days  
Heating Degree Days 28 11  
Month to date heating degree days 289  
Since 1 July heating degree days 2753  
Cooling Degree Days 0 0  
Month to date cooling degree days 0  
Year to date cooling degree days 0  
Moisture  
Dew Point 1 °F    
Average Humidity 29    
Maximum Humidity 60    
Minimum Humidity 5    
Precipitation  
Precipitation 0.00 in 0.16 in 2.53 in (1942)
Month to date precipitation 3.87  
Year to date precipitation 13.77  
Sea Level Pressure  
Sea Level Pressure 29.93 in    
Wind  
Wind Speed 7 mph (NW)    
Max Wind Speed 15 mph    
Max Gust Speed 25 mph    
Visibility 10 miles    
Events      
T = Trace of Precipitation, MM = Missing Value Source: NWS Daily Summary

Daily Weather History Graph

Daily Weather History Graph

Search for Another Location

Airport or City:

Trip Planner

Search our weather history database for the weather conditions in past years. The results will help you decide how hot, cold, wet, or windy it might be!

Date:

Astronomy

Mar. 21, 2013 Rise Set
Actual Time 7:39 AM EDT 7:50 PM EDT
Civil Twilight 7:14 AM EDT 8:15 PM EDT
Nautical Twilight 6:45 AM EDT 8:44 PM EDT
Astronomical Twilight 6:15 AM EDT 9:14 PM EDT
Moon 2:31 PM EDT (3/21) 3:48 AM EDT (3/21)
Length of Visible Light 13h 00m
Length of Day
12h 10m
Waxing Gibbous, 68% of the Moon is Illuminated
Mar 21
Waxing Gibbous
Mar 27
Full
Apr 3
Last Quarter
Apr 10
New
Apr 18
First Quarter

Hourly Weather History & Observations

Time (EDT) Temp. Windchill Dew Point Humidity Pressure Visibility Wind Dir Wind Speed Gust Speed Precip Events Conditions
12:15 AM 41.0 °F 35.2 °F 21.2 °F 45% 29.94 in 10.0 mi NW 9.2 mph - N/A   Clear
12:35 AM 41.0 °F 35.8 °F 21.2 °F 45% 29.94 in 10.0 mi NW 8.1 mph 19.6 mph N/A   Clear
12:55 AM 37.4 °F 33.8 °F 21.2 °F 52% 29.94 in 10.0 mi NW 4.6 mph - N/A   Clear
1:15 AM 37.4 °F 31.4 °F 21.2 °F 52% 29.94 in 10.0 mi NW 8.1 mph - N/A   Clear
1:35 AM 37.4 °F 33.8 °F 21.2 °F 52% 29.93 in 10.0 mi NW 4.6 mph - N/A   Clear
1:55 AM 37.4 °F 32.8 °F 21.2 °F 52% 29.93 in 10.0 mi NW 5.8 mph - N/A   Clear
2:15 AM 35.6 °F 32.8 °F 21.2 °F 56% 29.93 in 10.0 mi WNW 3.5 mph - N/A   Clear
2:35 AM 35.6 °F 30.7 °F 21.2 °F 56% 29.93 in 10.0 mi NW 5.8 mph - N/A   Clear
2:55 AM 35.6 °F 30.7 °F 21.2 °F 56% 29.92 in 10.0 mi NW 5.8 mph - N/A   Clear
3:15 AM 35.6 °F 29.9 °F 21.2 °F 56% 29.92 in 10.0 mi NW 6.9 mph - N/A   Clear
3:35 AM 35.6 °F 31.7 °F 21.2 °F 56% 29.92 in 10.0 mi NW 4.6 mph - N/A   Clear
3:55 AM 33.8 °F 28.6 °F 21.2 °F 60% 29.92 in 10.0 mi WNW 5.8 mph - N/A   Clear
4:35 AM 33.8 °F 30.8 °F 19.4 °F 56% 29.91 in 10.0 mi NW 3.5 mph - N/A   Clear
4:55 AM 33.8 °F 27.7 °F 19.4 °F 56% 29.90 in 10.0 mi WNW 6.9 mph - N/A   Clear
5:15 AM 32.0 °F 25.6 °F 17.6 °F 55% 29.90 in 10.0 mi NW 6.9 mph - N/A   Clear
5:35 AM 32.0 °F 26.4 °F 17.6 °F 55% 29.91 in 10.0 mi NW 5.8 mph - N/A   Clear
5:55 AM 32.0 °F 27.5 °F 17.6 °F 55% 29.91 in 10.0 mi WNW 4.6 mph - N/A   Clear
6:15 AM 32.0 °F 25.6 °F 15.8 °F 51% 29.92 in 10.0 mi NW 6.9 mph - N/A   Clear
6:35 AM 30.2 °F 24.3 °F 14.0 °F 51% 29.92 in 10.0 mi NW 5.8 mph - N/A   Clear
6:55 AM 30.2 °F 25.4 °F 12.2 °F 47% 29.92 in 10.0 mi NW 4.6 mph - N/A   Clear
7:15 AM 30.2 °F 24.3 °F 12.2 °F 47% 29.92 in 10.0 mi NW 5.8 mph - N/A   Clear
7:35 AM 30.2 °F 22.6 °F 10.4 °F 44% 29.92 in 10.0 mi NW 8.1 mph - N/A   Clear
7:55 AM 30.2 °F 23.4 °F 8.6 °F 40% 29.92 in 10.0 mi NW 6.9 mph 18.4 mph N/A   Clear
8:15 AM 28.4 °F 19.7 °F 8.6 °F 43% 29.92 in 10.0 mi WNW 9.2 mph 17.3 mph N/A   Clear
8:35 AM 28.4 °F 20.4 °F 6.8 °F 40% 29.93 in 10.0 mi WNW 8.1 mph 18.4 mph N/A   Clear
8:55 AM 30.2 °F 21.3 °F 5.0 °F 34% 29.94 in 10.0 mi WNW 10.4 mph 17.3 mph N/A   Clear
9:15 AM 30.2 °F 21.3 °F 3.2 °F 32% 29.95 in 10.0 mi NW 10.4 mph 17.3 mph N/A   Clear
9:35 AM 32.0 °F 23.6 °F 1.4 °F 27% 29.96 in 10.0 mi WNW 10.4 mph 17.3 mph N/A   Clear
9:55 AM 32.0 °F 24.8 °F -0.4 °F 25% 29.96 in 10.0 mi WNW 8.1 mph 24.2 mph N/A   Clear
10:15 AM 32.0 °F 21.6 °F -4.0 °F 21% 29.96 in 10.0 mi NW 15.0 mph 25.3 mph N/A   Clear
10:35 AM 32.0 °F 24.2 °F -5.8 °F 20% 29.97 in 10.0 mi NW 9.2 mph 21.9 mph N/A   Clear
10:55 AM 33.8 °F 25.8 °F -7.6 °F 17% 29.97 in 10.0 mi WNW 10.4 mph 18.4 mph N/A   Clear
11:15 AM 35.6 °F 28.0 °F -5.8 °F 17% 29.98 in 10.0 mi WNW 10.4 mph 19.6 mph N/A   Clear
11:35 AM 35.6 °F 28.0 °F -11.2 °F 13% 29.97 in 10.0 mi WNW 10.4 mph 21.9 mph N/A   Clear
11:55 AM 35.6 °F 27.5 °F -13.0 °F 12% 29.97 in 10.0 mi WNW 11.5 mph 19.6 mph N/A   Clear
12:15 PM 37.4 °F 29.3 °F -14.8 °F 10% 29.98 in 10.0 mi WNW 12.7 mph 21.9 mph N/A   Clear
12:35 PM 37.4 °F 30.3 °F -13.0 °F 11% 29.98 in 10.0 mi WNW 10.4 mph 20.7 mph N/A   Clear
1:15 PM 41.0 °F 33.5 °F -16.6 °F 8% 29.97 in 10.0 mi WNW 13.8 mph 20.7 mph N/A   Clear
1:55 PM 42.8 °F 37.0 °F -14.8 °F 8% 29.96 in 10.0 mi WNW 10.4 mph 16.1 mph N/A   Clear
2:15 PM 42.8 °F 38.6 °F -16.6 °F 8% 29.95 in 10.0 mi WNW 6.9 mph 17.3 mph N/A   Clear
2:35 PM 44.6 °F 39.2 °F -22.0 °F 5% 29.94 in 10.0 mi WNW 10.4 mph 21.9 mph N/A   Clear
2:55 PM 44.6 °F 39.2 °F -22.0 °F 5% 29.94 in 10.0 mi WNW 10.4 mph - N/A   Clear
3:15 PM 44.6 °F 38.8 °F -22.0 °F 5% 29.93 in 10.0 mi NW 11.5 mph 21.9 mph N/A   Clear
3:35 PM 44.6 °F 39.7 °F -22.0 °F 5% 29.93 in 10.0 mi WNW 9.2 mph 18.4 mph N/A   Clear
3:55 PM 46.4 °F 41.5 °F -20.2 °F 6% 29.92 in 10.0 mi NW 10.4 mph 19.6 mph N/A   Clear
4:15 PM 44.6 °F 40.2 °F -18.4 °F 7% 29.93 in 10.0 mi NW 8.1 mph 23.0 mph N/A   Clear
4:35 PM 44.6 °F 40.7 °F -20.2 °F 6% 29.92 in 10.0 mi WNW 6.9 mph 17.3 mph N/A   Clear
4:55 PM 46.4 °F 41.9 °F -20.2 °F 6% 29.92 in 10.0 mi NW 9.2 mph 16.1 mph N/A   Clear
5:15 PM 46.4 °F 45.2 °F -18.4 °F 6% 29.92 in 10.0 mi NW 3.5 mph - N/A   Clear
5:55 PM 44.6 °F 42.2 °F -16.6 °F 7% 29.91 in 10.0 mi NW 4.6 mph 17.3 mph N/A   Clear
6:15 PM 44.6 °F 41.4 °F -16.6 °F 7% 29.91 in 10.0 mi WNW 5.8 mph - N/A   Clear
6:35 PM 44.6 °F 40.2 °F -13.0 °F 9% 29.91 in 10.0 mi WNW 8.1 mph - N/A   Clear
6:55 PM 42.8 °F 40.1 °F -9.4 °F 11% 29.91 in 10.0 mi NW 4.6 mph - N/A   Clear
7:15 PM 42.8 °F 40.1 °F -9.4 °F 11% 29.91 in 10.0 mi NW 4.6 mph - N/A   Clear
7:35 PM 41.0 °F 38.0 °F -5.8 °F 14% 29.91 in 10.0 mi NW 4.6 mph - N/A   Clear
7:55 PM 41.0 °F - -5.8 °F 14% 29.91 in 10.0 mi Calm Calm - N/A   Clear
8:15 PM 39.2 °F - -5.8 °F 15% 29.92 in 10.0 mi Calm Calm - N/A   Clear
8:35 PM 37.4 °F - -0.4 °F 20% 29.92 in 10.0 mi Calm Calm - N/A   Clear
8:55 PM 37.4 °F - -4.0 °F 17% 29.93 in 10.0 mi Calm Calm - N/A   Clear
9:15 PM 35.6 °F 32.8 °F 5.0 °F 28% 29.93 in 10.0 mi NW 3.5 mph - N/A   Clear
9:55 PM 35.6 °F - 3.2 °F 26% 29.94 in 10.0 mi Calm Calm - N/A   Clear
10:15 PM 37.4 °F - -2.2 °F 19% 29.94 in 10.0 mi Calm Calm - N/A   Clear
10:55 PM 33.8 °F - 5.0 °F 30% 29.96 in 10.0 mi Calm Calm - N/A   Clear
11:15 PM 33.8 °F 30.8 °F 8.6 °F 35% 29.95 in 10.0 mi NW 3.5 mph - N/A   Clear
11:35 PM 33.8 °F - 6.8 °F 32% 29.96 in 10.0 mi Calm Calm - N/A   Clear
11:55 PM 33.8 °F - 3.2 °F 28% 29.97 in 10.0 mi Calm Calm - N/A   Clear